Location: *
(50.6089°N, 2.2719°E)
Time: 01:51:02
(UTC+00:00)

Lacrosse 5 - Pass Details

Date: 18 October 2019
Orbit: 715 x 724 km, 57.0° (Epoch: 12 November)

Event Time Altitude Azimuth Distance (km) Brightness Sun altitude
Rises 17:29:19 0° 296° (WNW) 3,125 6.2 -6.4°
Reaches altitude 10° 17:31:46 10° 302° (WNW) 2,203 5.2 -6.8°
Maximum altitude 17:36:43 52° 19° (NNE) 885 2.2 -7.6°
Drops below altitude 10° 17:41:40 10° 96° (E) 2,197 3.7 -8.4°
Enters shadow 17:41:42 10° 96° (E) 2,210 3.7 -8.4°
